Regional Weather Roundup
Issued by NWS Grand Forks, ND

Home | Current Version | Previous Version | Graphics & Text | Print | Product List | Glossary On
Versions: 1 2 3 4 5 6 7 8 9 10 11 12 13 14 15 16 17 18 19 20 21 22 23 24 25 26 27 28 29 30 31 32 33 34 35 36 37 38 39 40 41 42 43 44 45 46 47 48 49 50
000
ASUS43 KFGF 221131
RWRFGF
PRAIRIE TO PINES  WEATHER ROUNDUP
NATIONAL WEATHER SERVICE EASTERN NORTH DAKOTA/GRAND FORKS ND
500 AM CST MON DEC 22 2014

 **SATELLITE DATA USED TO AUGMENT SKY COVER AT AUTOMATED STATIONS**
 *****  WEATHER ACROSS EASTERN NORTH DAKOTA  *****

CITY           SKY/WX    TMP DP  RH WIND       PRES   REMARKS
GRAND FORKS    CLOUDY    34  34 100 E6        29.52S FOG
GRAND FRKS AFB CLOUDY    34  34 100 SE6       29.53S FOG
GRAND FRKS NWS   N/A     32 N/A N/A E1          N/A
DEVILS LAKE    CLOUDY    30  25  80 E7        29.47S WCI  23
FARGO          CLOUDY    38  36  92 SE14      29.49F
WAHPETON ARPT  CLOUDY    34  32  93 SE10      29.49S
$$

 ***** WEATHER ACROSS CENTRAL AND WESTERN NORTH DAKOTA  *****

CITY           SKY/WX    TMP DP  RH WIND       PRES   REMARKS
BISMARCK       FOG       28  28 100 SE3       29.45S VSB 1/2
MINOT          CLOUDY    28  26  92 E3        29.46S FOG
JAMESTOWN      CLOUDY    32  31  96 E6        29.44S FOG
MINOT AFB      FRZ DRZL  28  28 100 E8        29.46S FOG     WCI  20
GARRISON         N/A     28  28 100 E6        29.43R WCI  22
WILLISTON      LGT SNOW  30  26  85 NW15      29.47R FOG     WCI  19
DICKINSON      LGT SNOW  33  30  88 NW21G28   29.43R FOG     WCI  21
HETTINGER      CLOUDY    35  32  88 NW18G25   29.45S WCI  24
$$

 *****  OTHER AIRPORT OBSERVATIONS IN OUR AREA  *****

CITY           SKY/WX    TMP DP  RH WIND       PRES   REMARKS
WALHALLA         N/A     32  32 100 E5        29.55F FOG
GRAFTON AIRPOR NOT AVBL
VALLEY CITY AR LGT RAIN  32  32 100 E7        29.45F VSB 1/4
CANDO          CLOUDY    30  30 100 SE8       29.50S FOG     WCI  23
CAVALIER APRT  CLOUDY    32  32 100 E7        29.55S FOG
GWINNER        CLOUDY    36  36 100 SE9       29.46S VSB 1/2
SHEYENNE NWR     N/A     35  35 100 SE8       29.95
ROLLA          CLOUDY    27  27 100 SE13      29.50R FOG     WCI  16
 ***** THE ABOVE OBSERVATIONS ARE NON NWS ARE NOT QUALITY
       CONTROLLED AND MAY MIS-REPORT RAIN FOR SNOW...
$$

  *****  WEATHER ACROSS NORTHERN MINNESOTA  *****

CITY           SKY/WX    TMP DP  RH WIND       PRES   REMARKS
FLAG ISLAND    CLOUDY    34  30  86 E3        29.62S FOG
WARROAD        CLOUDY    34  28  80 E10       29.61S FOG
ROSEAU         CLOUDY    34  30  86 E8        29.59S FOG
HALLOCK        CLOUDY    36  34  93 E7        29.56R
THF RVR FALLS  CLOUDY    34  34 100 E10       29.55S
BAUDETTE       LGT SNOW  33  31  92 E7        29.61F FOG
WASKISH        CLOUDY    34  34 100 CALM      29.60F
CROOKSTON      MIX PCPN  36  34  93 E9        29.54S
STEPHEN NDAWN    N/A     34  34 100 SE8         N/A
GREENBUSH NDAW   N/A     34  34 100 E8          N/A
$$
  *****  WEATHER ACROSS CENTRAL AND WEST MINNESOTA  *****

CITY           SKY/WX    TMP DP  RH WIND       PRES   REMARKS
FOSSTON        CLOUDY    34  34 100 SE6       29.54F
BEMIDJI        CLOUDY    33  33  99 SE10      29.56F FOG     WCI  25
PARK RAPIDS    CLOUDY    36  34  92 SE12      29.55F FOG
ELBOW LAKE     CLOUDY    35  35 100 SE15      29.50F FOG
WADENA         DRIZZLE   34  34 100 SE8       29.54F
DETROIT LAKES  CLOUDY    36  36 100 SE13      29.52F FOG
MOORHEAD       CLOUDY    37  37 100 SE10G16   29.50F FOG
FERGUS FALLS   CLOUDY    36  36 100 SE17      29.53F FOG
MORRIS MN      FOG       36  36 100 SE17      29.50F VSB 1/2
STAPLES        CLOUDY    36  36 100 SE9       29.56F FOG
$$
  *****  WEATHER ELSEWHERE ACROSS MINNESOTA  *****

CITY           SKY/WX    TMP DP  RH WIND       PRES   REMARKS
DULUTH         LGT SNOW  33  31  92 SE7       29.68F FOG
INTRNTL FALLS  LGT SNOW  33  32  96 SE7       29.65S FOG
ELY            LGT RAIN  34  32  93 SE6       29.68S
CLOQUET        LGT SNOW  34  32  93 SE5       29.68S
WHEATON        CLOUDY    34  34 100 SE13      29.50F FOG     WCI  25
BRAINERD       CLOUDY    36  35  96 SE9       29.60F FOG
HIBBING        CLOUDY    34  31  88 SE8       29.66S FOG
ALEXANDRIA     CLOUDY    36  35  96 SE15      29.54F FOG
SAINT CLOUD    CLOUDY    39  36  89 SE16      29.61S FOG
MINNEAPOLIS    CLOUDY    37  35  92 SE15G23   29.67F FOG
$$

  *****  WEATHER ACROSS SOUTH DAKOTA  *****

CITY           SKY/WX    TMP DP  RH WIND       PRES   REMARKS
SIOUX FALLS    LGT RAIN  40  39  97 S10       29.47F FOG
BROOKINGS      NOT AVBL
WATERTOWN      CLOUDY    36  35  96 S12       29.44S
HURON          CLOUDY    35  34  96 S6        29.44S FOG
SISSETON         N/A     35  35 100 SE12      29.45F
ABERDEEN       CLOUDY    34  33  96 S5        29.42S FOG
MITCHELL       LGT RAIN  37  37 100 S7        29.45S
PIERRE         CLOUDY    36  34  92 W9        29.43S
MOBRIDGE       CLOUDY    30  28  92 CALM      29.40F FOG
RAPID CITY     MOCLDY    41  25  53 NW21G31   29.52R
$$

  *****  SOME WEATHER IN NEARBY STATES *****

CITY           SKY/WX    TMP DP  RH WIND       PRES   REMARKS
GLASGOW MT     CLOUDY    32  27  81 NW17G24   29.58R WCI  21
GREAT FALLS MT CLOUDY    34  27  75 SW7       29.75R
CHEYENNE WY    MOCLDY    28  19  69 NW12      29.70R WCI  18
SCOTTSBLUFF NE CLOUDY    36  28  73 NW14      29.68R
OMAHA NE       LGT RAIN  43  41  93 S16       29.57F
DES MOINES IA  CLOUDY    41  37  86 S13       29.67F
DAVENPORT IA   CLOUDY    36  30  79 SE12      29.82F
CHICAGO IL     CLOUDY    31  27  85 S10       29.95F WCI  22
EAU CLAIRE WI  CLOUDY    35  33  92 SE13      29.76S FOG
LA CROSSE WI   CLOUDY    37  32  82 SE10      29.79F
$$

  *****  SOME NATIONAL WEATHER *****

CITY           SKY/WX    TMP DP  RH WIND       PRES   REMARKS
LA GUARDIA NY  CLOUDY    36  31  82 N6        30.32S
RALEIGH NC     LGT RAIN  36  34  93 NE12      30.14F FOG
ATLANTA GA     DRZL/FOG  46  43  89 E15       30.02F VSB 1
NEW ORLEANS LA CLOUDY    58  56  93 E5        29.86S FOG
OKLAHOMA CITY  CLOUDY    49  45  86 SE9       29.52F
ALBUQUERQUE NM MOCLDY    33  28  81 SE3       29.91F
SALT LAKE CITY LGT RAIN  41  36  82 SE7       30.02F
LOS ANGELES CA PTCLDY    52  51  97 SE5       30.04R
BOISE ID       LGT RAIN  39  39 100 W3        30.08S FOG
SEATTLE WA     PTCLDY    46  42  86 CALM      30.18R
$$

*** WEATHER ACROSS MANITOBA...SASKATCHEWAN AND ONTARIO ***
                ***ONTARIO***

CITY           SKY/WX    TMP DP  RH WIND       PRES   REMARKS
GERALDTON      NOT AVBL
THUNDER BAY    CLOUDY    36  34  93 SE2       29.80S
SIOUX LOOKOUT  LGT SNOW  30  30 100 SE3       29.69  FOG
TORONTO        CLOUDY    32  25  74 E7        30.20F
BIG TROUT LK   FLURRIES  28  28 100 SE5       29.74S WCI  23
PICKLE LAKE    FRZ DRZL  30  28  93 S7        29.72  FOG     WCI  23
DRYDEN         CLOUDY    32  30  93 SE5       29.67S
KENORA         CLOUDY    30  30 100 SE6       29.64  FOG     WCI  24
$$
                *** MANITOBA***

CITY           SKY/WX    TMP DP  RH WIND       PRES   REMARKS
BRANDON        CLOUDY    28  28 100 E8        29.53S FOG     WCI  20
DAUPHIN        LGT SNOW  25  25 100 CALM      29.60R
ISLAND LAKE    FLURRIES  28  27  93 CALM      29.70R
PILOT MOUND      N/A     28  28 100 CALM        N/A
THE PAS        FOG       25  25 100 NE6       29.68R VSB 1   WCI  18
THOMPSON       FRZ DRZL  19  18  93 NE8       29.75  WCI   9
WINNIPEG       FOG       30  30 100 E10       29.60  VSB 1   WCI  21
LYNN LAKE      FLURRIES  12  10  92 NE5       29.77R WCI   4
CHURCHILL      FLURRIES  16  16 100 W5        29.83S WCI   9
GILLAM         FRZ DRZL  19  18  93 NE5       29.80R WCI  13
$$
                ***SASKATCHEWAN***

CITY           SKY/WX    TMP DP  RH WIND       PRES   REMARKS
ESTEVAN        FOG       28  28 100 NE5       29.46R VSB 1/4 WCI  23
KINDERSLEY     CLOUDY    21  18  86 NW7       29.63  WCI  13
LLOYDMINSTER   LGT SNOW  19  18  93 NW8       29.64R WCI   9
PRINCE ALBERT  CLOUDY    21  21 100 E5        29.65R WCI  15
REGINA         LGT SNOW  23  23 100 N9        29.54  FOG     WCI  13
YORKTON        CLOUDY    23  21  93 NE9       29.56S WCI  13
N. BATTLEFORD  CLOUDY    19  18  93 NW5       29.67R WCI  13
LA RONGE       CLOUDY    19  18  93 NE7       29.70R WCI  10
SASKATOON      CLOUDY    23  21  93 N7        29.64  WCI  15
SWIFT CURRENT  FLURRIES  19  18  93 NW17      29.59R WCI   4
$$
NOTE: THESE ARE AUTOMATED STATIONS WITH LIMITED QUALITY CONTROL
      "FAIR" INDICATES FEW OR NO CLOUDS BELOW 12,000 FEET WITH NO
      SIGNIFICANT WEATHER AND/OR OBSTRUCTIONS TO VISIBILITY.
      SKY/WX - SKY CONDITION AND SIGNIFICANT WEATHER.
      TMP - AIR TEMPERATURE.    DP   - DEWPOINT TEMPERATURE.
      RH  - RELATIVE HUMIDITY.  PRES - PRESSURE.
      HX  - HEAT INDEX.         WCI  - WIND CHILL INDEX.
$



USA.gov is the U.S. government's official web portal to all federal, state and local government web resources and services.